Location: Tierra del Sol
(32.6128°N, 116.3319°W)
Time: 09:47:15
(UTC-08:00)

Envisat - Pass Details

Date: 16 October 2017
Orbit: 764 x 766 km, 98.2° (Epoch: 17 December)

Event Time Altitude Azimuth Distance (km) Brightness Sun altitude
Exits shadow 21:06:43 14° 335° (NNW) 2,026 5.5 -37.6°
Drops below altitude 10° 21:07:28 10° 338° (NNW) 2,308 5.8 -37.8°
Sets 21:09:50 0° 342° (NNW) 3,237 6.6 -38.2°
